Time,TemperatureF,DewpointF,PressureIn,WindDirection,WindDirectionDegrees,WindSpeedMPH,WindSpeedGustMPH,Humidity,HourlyPrecipIn,Conditions,Clouds,dailyrainin,SoftwareType,DateUTC
2013-07-12 00:00:00,75.6,74.7,29.83,North,0,0.0,0.0,97,0.00,,---,0.03,VWS V14.01,2013-07-12 04:00:00,
2013-07-12 00:30:00,75.1,74.2,29.84,North,0,0.0,0.0,97,0.00,,---,0.03,VWS V14.01,2013-07-12 04:30:00,
2013-07-12 01:00:00,74.7,73.8,29.84,North,0,0.0,0.0,97,0.00,,---,0.00,VWS V14.01,2013-07-12 05:00:00,
2013-07-12 01:30:00,74.0,73.4,29.83,North,0,0.0,0.0,98,0.00,,---,0.00,VWS V14.01,2013-07-12 05:30:00,
2013-07-12 02:00:00,73.9,73.6,29.83,North,0,0.0,0.0,99,0.00,,---,0.00,VWS V14.01,2013-07-12 06:00:00,
2013-07-12 02:30:00,73.5,73.2,29.83,North,0,0.0,0.0,99,0.00,,---,0.00,VWS V14.01,2013-07-12 06:30:00,
2013-07-12 03:00:00,73.0,73.0,29.82,North,0,0.0,0.0,100,0.00,,---,0.00,VWS V14.01,2013-07-12 07:00:00,
2013-07-12 03:30:00,72.7,72.7,29.81,North,0,0.0,0.0,100,0.00,,---,0.00,VWS V14.01,2013-07-12 07:30:00,
2013-07-12 04:00:00,72.1,72.1,29.81,North,0,0.0,0.0,100,0.00,,---,0.00,VWS V14.01,2013-07-12 08:00:00,
2013-07-12 04:30:00,71.8,71.8,29.80,North,0,0.0,0.0,100,0.00,,---,0.00,VWS V14.01,2013-07-12 08:30:00,
2013-07-12 05:00:00,71.5,71.5,29.79,North,0,0.0,0.0,100,0.00,,---,0.00,VWS V14.01,2013-07-12 09:00:00,
2013-07-12 05:30:00,71.3,71.3,29.80,North,0,0.0,0.0,100,0.00,,---,0.00,VWS V14.01,2013-07-12 09:30:00,
2013-07-12 06:00:00,70.9,70.9,29.79,North,0,0.0,0.0,100,0.00,,---,0.00,VWS V14.01,2013-07-12 10:00:00,
2013-07-12 06:30:00,71.1,71.1,29.80,North,0,0.0,0.0,100,0.00,,---,0.00,VWS V14.01,2013-07-12 10:30:00,
2013-07-12 07:00:00,71.1,71.1,29.80,North,0,0.0,0.0,100,0.00,,---,0.00,VWS V14.01,2013-07-12 11:00:00,
2013-07-12 07:30:00,71.8,71.8,29.80,North,0,0.0,0.0,100,0.00,,---,0.00,VWS V14.01,2013-07-12 11:30:00,
2013-07-12 08:00:00,72.1,72.1,29.80,North,0,0.0,0.0,100,0.00,,---,0.00,VWS V14.01,2013-07-12 12:00:00,
2013-07-12 08:30:00,72.5,72.5,29.81,North,0,0.0,0.0,100,0.00,,---,0.00,VWS V14.01,2013-07-12 12:30:00,
2013-07-12 09:00:00,74.0,74.0,29.82,North,0,0.0,0.0,100,0.00,,---,0.00,VWS V14.01,2013-07-12 13:00:00,
2013-07-12 09:30:00,76.8,76.8,29.82,WSW,248,0.0,2.0,100,0.00,,---,0.00,VWS V14.01,2013-07-12 13:30:00,
2013-07-12 10:00:00,78.5,78.5,29.83,WSW,248,0.0,0.0,100,0.00,,---,0.00,VWS V14.01,2013-07-12 14:00:00,
2013-07-12 10:30:00,81.6,74.8,29.82,WSW,248,0.0,0.0,80,0.00,,---,0.00,VWS V14.01,2013-07-12 14:30:00,
2013-07-12 11:00:00,85.1,74.6,29.82,West,270,0.0,5.0,71,0.00,,---,0.00,VWS V14.01,2013-07-12 15:00:00,
2013-07-12 11:30:00,79.2,73.2,29.84,South,180,0.0,1.0,82,0.17,,---,0.17,VWS V14.01,2013-07-12 15:30:00,
2013-07-12 12:00:00,75.6,73.8,29.83,SE,135,0.0,3.0,94,0.30,,---,0.30,VWS V14.01,2013-07-12 16:00:00,
2013-07-12 12:30:00,76.3,75.7,29.83,SE,135,0.0,0.0,98,0.30,,---,0.30,VWS V14.01,2013-07-12 16:30:00,
2013-07-12 13:00:00,76.5,75.0,29.82,SE,135,0.0,0.0,95,0.13,,---,0.30,VWS V14.01,2013-07-12 17:00:00,
2013-07-12 13:30:00,76.1,74.9,29.82,WSW,248,0.0,2.0,96,0.04,,---,0.34,VWS V14.01,2013-07-12 17:30:00,
2013-07-12 14:00:00,74.7,72.9,29.84,SW,225,0.0,5.0,94,0.08,,---,0.38,VWS V14.01,2013-07-12 18:00:00,
2013-07-12 14:30:00,74.6,74.6,29.82,SW,225,0.0,0.0,100,0.07,,---,0.45,VWS V14.01,2013-07-12 18:30:00,
2013-07-12 15:00:00,74.2,73.6,29.82,SW,225,0.0,0.0,98,0.08,,---,0.42,VWS V14.01,2013-07-12 19:00:00,
2013-07-12 15:06:00,75.3,75.3,29.81,SSW,209,0.0,0.0,100,0.05,,---,0.45,VWS V14.01,2013-07-12 19:06:00,
2013-07-12 15:11:00,75.3,75.3,29.81,SSW,209,0.0,0.0,100,0.05,,---,0.45,VWS V14.01,2013-07-12 19:11:00,
2013-07-12 15:16:00,75.3,75.3,29.81,SSW,209,0.0,0.0,100,0.05,,---,0.45,VWS V14.01,2013-07-12 19:16:00,
2013-07-12 15:22:00,75.3,75.3,29.81,SSW,209,0.0,0.0,100,0.05,,---,0.45,VWS V14.01,2013-07-12 19:22:00,
2013-07-12 15:27:00,75.3,75.3,29.81,SSW,209,0.0,0.0,100,0.05,,---,0.45,VWS V14.01,2013-07-12 19:27:00,
2013-07-12 15:30:00,74.6,74.6,29.82,SW,225,0.0,0.0,100,0.07,,---,0.45,VWS V14.01,2013-07-12 19:30:00,
2013-07-12 15:32:00,75.3,75.3,29.81,SSW,209,0.0,0.0,100,0.05,,---,0.45,VWS V14.01,2013-07-12 19:32:00,
2013-07-12 15:37:00,75.3,75.3,29.81,SSW,209,0.0,0.0,100,0.00,,---,0.45,VWS V14.01,2013-07-12 19:37:00,
2013-07-12 15:42:00,77.0,77.0,29.81,SSW,209,0.0,0.0,100,0.00,,---,0.45,VWS V14.01,2013-07-12 19:42:00,
2013-07-12 15:47:00,77.4,77.1,29.80,SSW,209,0.0,0.0,99,0.00,,---,0.45,VWS V14.01,2013-07-12 19:47:00,
2013-07-12 15:52:00,77.6,77.0,29.80,SSW,209,0.0,0.0,98,0.00,,---,0.45,VWS V14.01,2013-07-12 19:52:00,
2013-07-12 15:57:00,77.7,76.5,29.80,SSW,209,0.0,0.0,96,0.00,,---,0.45,VWS V14.01,2013-07-12 19:57:00,
2013-07-12 16:00:00,78.3,77.1,29.80,SSW,209,0.0,0.0,96,0.00,,---,0.45,VWS V14.01,2013-07-12 20:00:00,
2013-07-12 16:02:00,78.3,77.1,29.80,SSW,209,0.0,0.0,96,0.00,,---,0.45,VWS V14.01,2013-07-12 20:02:00,
2013-07-12 16:07:00,78.8,77.2,29.80,SSW,209,0.0,0.0,95,0.00,,---,0.45,VWS V14.01,2013-07-12 20:07:00,
2013-07-12 16:13:00,79.2,76.7,29.80,SSW,209,0.0,0.0,92,0.00,,---,0.45,VWS V14.01,2013-07-12 20:13:00,
2013-07-12 16:18:00,79.2,75.7,29.79,SSW,209,0.0,0.0,89,0.00,,---,0.45,VWS V14.01,2013-07-12 20:18:00,
2013-07-12 16:23:00,79.8,76.3,29.79,SSW,209,0.0,0.0,89,0.00,,---,0.45,VWS V14.01,2013-07-12 20:23:00,
2013-07-12 16:28:00,79.8,75.2,29.79,SSW,209,0.0,0.0,86,0.00,,---,0.45,VWS V14.01,2013-07-12 20:28:00,
2013-07-12 16:30:00,75.3,75.3,29.81,SSW,209,0.0,0.0,100,0.05,,---,0.45,VWS V14.01,2013-07-12 20:30:00,
2013-07-12 16:33:00,80.3,75.7,29.78,SSW,209,0.0,0.0,86,0.00,,---,0.45,VWS V14.01,2013-07-12 20:33:00,
2013-07-12 16:38:00,80.9,76.0,29.78,SSW,209,0.0,0.0,85,0.00,,---,0.45,VWS V14.01,2013-07-12 20:38:00,
2013-07-12 16:43:00,80.9,75.3,29.78,SSW,209,0.0,0.0,83,0.00,,---,0.45,VWS V14.01,2013-07-12 20:43:00,
2013-07-12 16:48:00,80.9,74.9,29.79,SSW,209,0.0,0.0,82,0.00,,---,0.45,VWS V14.01,2013-07-12 20:48:00,
2013-07-12 16:53:00,81.2,75.6,29.79,SSW,209,0.0,0.0,83,0.00,,---,0.45,VWS V14.01,2013-07-12 20:53:00,
2013-07-12 16:58:00,81.8,76.1,29.79,SSW,209,0.0,0.0,83,0.00,,---,0.45,VWS V14.01,2013-07-12 20:58:00,
2013-07-12 17:00:00,78.3,77.1,29.80,SSW,209,0.0,0.0,96,0.00,,---,0.45,VWS V14.01,2013-07-12 21:00:00,
2013-07-12 17:03:00,82.2,76.2,29.79,SSW,209,0.0,0.0,82,0.00,,---,0.45,VWS V14.01,2013-07-12 21:03:00,
2013-07-12 17:08:00,82.4,75.6,29.79,SSW,199,0.0,0.0,80,0.00,,---,0.45,VWS V14.01,2013-07-12 21:08:00,
2013-07-12 17:14:00,82.2,75.8,29.79,SSW,199,0.0,0.0,81,0.00,,---,0.45,VWS V14.01,2013-07-12 21:14:00,
2013-07-12 17:19:00,82.4,75.6,29.79,SSW,199,0.0,0.0,80,0.00,,---,0.45,VWS V14.01,2013-07-12 21:19:00,
2013-07-12 17:24:00,83.0,76.6,29.79,SSW,199,0.0,0.0,81,0.00,,---,0.45,VWS V14.01,2013-07-12 21:24:00,
2013-07-12 17:29:00,82.8,75.2,29.79,SSW,199,0.0,0.0,78,0.00,,---,0.45,VWS V14.01,2013-07-12 21:29:00,
2013-07-12 17:30:00,80.3,75.7,29.78,SSW,209,0.0,0.0,86,0.00,,---,0.45,VWS V14.01,2013-07-12 21:30:00,
2013-07-12 17:34:00,83.2,75.6,29.79,SSW,199,0.0,0.0,78,0.00,,---,0.45,VWS V14.01,2013-07-12 21:34:00,
2013-07-12 17:40:00,83.8,76.6,29.79,SSW,199,0.0,0.0,79,0.00,,---,0.45,VWS V14.01,2013-07-12 21:40:00,
2013-07-12 17:45:00,83.8,76.6,29.79,SSW,199,0.0,0.0,79,0.00,,---,0.45,VWS V14.01,2013-07-12 21:45:00,
2013-07-12 17:50:00,83.8,75.4,29.78,SSW,199,0.0,0.0,76,0.00,,---,0.45,VWS V14.01,2013-07-12 21:50:00,
2013-07-12 17:55:00,84.0,74.8,29.78,SSW,199,0.0,0.0,74,0.00,,---,0.45,VWS V14.01,2013-07-12 21:55:00,
2013-07-12 18:00:00,84.1,75.3,29.78,SSW,199,0.0,0.0,75,0.00,,---,0.45,VWS V14.01,2013-07-12 22:00:00,
2013-07-12 18:05:00,84.5,76.5,29.78,SSW,199,0.0,0.0,77,0.00,,---,0.45,VWS V14.01,2013-07-12 22:05:00,
2013-07-12 18:10:00,84.7,77.1,29.78,SSW,199,0.0,0.0,78,0.00,,---,0.45,VWS V14.01,2013-07-12 22:10:00,
2013-07-12 18:15:00,84.5,76.9,29.78,SSW,199,0.0,0.0,78,0.00,,---,0.45,VWS V14.01,2013-07-12 22:15:00,
2013-07-12 18:20:00,84.1,76.5,29.78,SSW,199,0.0,0.0,78,0.00,,---,0.45,VWS V14.01,2013-07-12 22:20:00,
2013-07-12 18:25:00,84.0,77.2,29.78,SSW,199,0.0,0.0,80,0.00,,---,0.45,VWS V14.01,2013-07-12 22:25:00,
2013-07-12 18:30:00,83.4,77.3,29.78,SSW,199,0.0,0.0,82,0.00,,---,0.45,VWS V14.01,2013-07-12 22:30:00,
2013-07-12 18:35:00,83.0,77.3,29.78,SSW,199,0.0,0.0,83,0.00,,---,0.45,VWS V14.01,2013-07-12 22:35:00,
2013-07-12 18:40:00,82.8,76.4,29.78,SSW,199,0.0,0.0,81,0.00,,---,0.45,VWS V14.01,2013-07-12 22:40:00,
2013-07-12 18:45:00,82.6,75.8,29.78,SSW,199,0.0,0.0,80,0.00,,---,0.45,VWS V14.01,2013-07-12 22:45:00,
2013-07-12 18:50:00,82.2,75.4,29.78,SSW,199,0.0,0.0,80,0.00,,---,0.45,VWS V14.01,2013-07-12 22:50:00,
2013-07-12 18:55:00,82.4,76.0,29.78,SSW,199,0.0,0.0,81,0.00,,---,0.45,VWS V14.01,2013-07-12 22:55:00,
2013-07-12 19:00:00,84.3,75.9,29.78,SSW,199,0.0,0.0,76,0.00,,---,0.45,VWS V14.01,2013-07-12 23:00:00,
2013-07-12 19:01:00,82.4,76.0,29.78,SSW,199,0.0,0.0,81,0.00,,---,0.45,VWS V14.01,2013-07-12 23:01:00,
2013-07-12 19:06:00,82.4,75.6,29.78,SSW,199,0.0,0.0,80,0.00,,---,0.45,VWS V14.01,2013-07-12 23:06:00,
2013-07-12 19:11:00,82.0,74.1,29.78,SSW,199,0.0,0.0,77,0.00,,---,0.45,VWS V14.01,2013-07-12 23:11:00,
2013-07-12 19:16:00,82.2,75.0,29.78,SSW,199,0.0,0.0,79,0.00,,---,0.45,VWS V14.01,2013-07-12 23:16:00,
2013-07-12 19:21:00,82.4,75.6,29.78,SSW,199,0.0,0.0,80,0.00,,---,0.45,VWS V14.01,2013-07-12 23:21:00,
2013-07-12 19:26:00,82.4,75.6,29.78,SSW,199,0.0,0.0,80,0.00,,---,0.45,VWS V14.01,2013-07-12 23:26:00,
2013-07-12 19:30:00,83.2,77.5,29.78,SSW,199,0.0,0.0,83,0.00,,---,0.45,VWS V14.01,2013-07-12 23:30:00,
2013-07-12 19:31:00,82.2,76.2,29.78,SSW,199,0.0,0.0,82,0.00,,---,0.45,VWS V14.01,2013-07-12 23:31:00,
2013-07-12 19:36:00,82.0,76.3,29.78,SSW,199,0.0,0.0,83,0.00,,---,0.45,VWS V14.01,2013-07-12 23:36:00,
2013-07-12 19:42:00,81.8,76.1,29.78,SSW,199,0.0,0.0,83,0.00,,---,0.45,VWS V14.01,2013-07-12 23:42:00,
2013-07-12 19:47:00,81.8,76.1,29.79,SSW,199,0.0,0.0,83,0.00,,---,0.45,VWS V14.01,2013-07-12 23:47:00,
2013-07-12 19:52:00,81.6,76.3,29.79,SSW,199,0.0,0.0,84,0.00,,---,0.45,VWS V14.01,2013-07-12 23:52:00,
2013-07-12 19:57:00,81.2,76.3,29.79,SSW,199,0.0,0.0,85,0.00,,---,0.45,VWS V14.01,2013-07-12 23:57:00,
2013-07-12 20:00:00,82.4,76.0,29.78,SSW,199,0.0,0.0,81,0.00,,---,0.45,VWS V14.01,2013-07-13 00:00:00,
2013-07-12 20:02:00,80.9,76.0,29.78,SSW,199,0.0,0.0,85,0.00,,---,0.45,VWS V14.01,2013-07-13 00:02:00,
2013-07-12 20:08:00,80.7,76.1,29.78,SSW,199,0.0,0.0,86,0.00,,---,0.45,VWS V14.01,2013-07-13 00:08:00,
2013-07-12 20:13:00,80.5,76.3,29.78,SSW,199,0.0,0.0,87,0.00,,---,0.45,VWS V14.01,2013-07-13 00:13:00,
2013-07-12 20:18:00,80.1,76.2,29.78,SSW,199,0.0,0.0,88,0.00,,---,0.45,VWS V14.01,2013-07-13 00:18:00,
2013-07-12 20:23:00,79.8,75.9,29.78,SSW,199,0.0,0.0,88,0.00,,---,0.45,VWS V14.01,2013-07-13 00:23:00,
2013-07-12 20:29:00,79.6,76.1,29.78,SSW,199,0.0,0.0,89,0.00,,---,0.45,VWS V14.01,2013-07-13 00:29:00,
2013-07-12 20:30:00,82.2,76.2,29.78,SSW,199,0.0,0.0,82,0.00,,---,0.45,VWS V14.01,2013-07-13 00:30:00,
2013-07-12 20:34:00,79.2,76.0,29.79,SSW,199,0.0,0.0,90,0.00,,---,0.45,VWS V14.01,2013-07-13 00:34:00,
2013-07-12 20:39:00,79.0,75.8,29.79,SSW,199,0.0,0.0,90,0.00,,---,0.45,VWS V14.01,2013-07-13 00:39:00,
2013-07-12 20:44:00,78.8,75.6,29.79,SSW,199,0.0,0.0,90,0.00,,---,0.45,VWS V14.01,2013-07-13 00:44:00,
2013-07-12 20:50:00,78.5,75.7,29.79,SSW,199,0.0,0.0,91,0.00,,---,0.45,VWS V14.01,2013-07-13 00:50:00,
2013-07-12 20:55:00,78.3,75.8,29.79,SSW,199,0.0,0.0,92,0.00,,---,0.45,VWS V14.01,2013-07-13 00:55:00,
2013-07-12 21:00:00,78.1,75.6,29.79,SSW,199,0.0,0.0,92,0.00,,---,0.45,VWS V14.01,2013-07-13 01:00:00,
2013-07-12 21:05:00,77.9,75.4,29.80,SSW,199,0.0,0.0,92,0.00,,---,0.45,VWS V14.01,2013-07-13 01:05:00,
2013-07-12 21:10:00,77.7,75.5,29.80,SSW,199,0.0,0.0,93,0.00,,---,0.45,VWS V14.01,2013-07-13 01:10:00,
2013-07-12 21:15:00,77.6,75.4,29.80,SSW,199,0.0,0.0,93,0.00,,---,0.45,VWS V14.01,2013-07-13 01:15:00,
2013-07-12 21:21:00,77.4,75.5,29.80,SSW,199,0.0,0.0,94,0.00,,---,0.45,VWS V14.01,2013-07-13 01:21:00,
2013-07-12 21:26:00,77.2,75.3,29.80,SSW,199,0.0,0.0,94,0.00,,---,0.45,VWS V14.01,2013-07-13 01:26:00,
2013-07-12 21:30:00,79.2,75.7,29.79,SSW,199,0.0,0.0,89,0.00,,---,0.45,VWS V14.01,2013-07-13 01:30:00,
2013-07-12 21:31:00,77.2,75.7,29.80,SSW,199,0.0,0.0,95,0.00,,---,0.45,VWS V14.01,2013-07-13 01:31:00,
2013-07-12 21:36:00,77.0,75.5,29.80,SSW,199,0.0,0.0,95,0.00,,---,0.45,VWS V14.01,2013-07-13 01:36:00,
2013-07-12 21:41:00,77.0,75.5,29.80,SSW,199,0.0,0.0,95,0.00,,---,0.45,VWS V14.01,2013-07-13 01:41:00,
2013-07-12 21:46:00,76.8,75.3,29.80,SSW,199,0.0,0.0,95,0.00,,---,0.45,VWS V14.01,2013-07-13 01:46:00,
2013-07-12 21:51:00,76.7,75.5,29.81,SSW,199,0.0,0.0,96,0.00,,---,0.45,VWS V14.01,2013-07-13 01:51:00,
2013-07-12 21:56:00,76.8,75.6,29.81,SSW,199,0.0,0.0,96,0.00,,---,0.45,VWS V14.01,2013-07-13 01:56:00,
2013-07-12 22:00:00,78.1,75.6,29.80,SSW,199,0.0,0.0,92,0.00,,---,0.45,VWS V14.01,2013-07-13 02:00:00,
2013-07-12 22:01:00,76.8,75.6,29.81,SSW,199,0.0,0.0,96,0.00,,---,0.45,VWS V14.01,2013-07-13 02:01:00,
2013-07-12 22:06:00,76.7,75.8,29.81,SSW,199,0.0,0.0,97,0.00,,---,0.45,VWS V14.01,2013-07-13 02:06:00,
2013-07-12 22:11:00,76.7,75.8,29.81,SSW,199,0.0,0.0,97,0.00,,---,0.45,VWS V14.01,2013-07-13 02:11:00,
2013-07-12 22:16:00,76.7,75.8,29.81,SSW,199,0.0,0.0,97,0.00,,---,0.45,VWS V14.01,2013-07-13 02:16:00,
2013-07-12 22:30:00,77.0,75.5,29.80,SSW,199,0.0,0.0,95,0.00,,---,0.45,VWS V14.01,2013-07-13 02:30:00,
2013-07-12 22:40:00,76.3,75.4,29.83,SSW,199,0.0,0.0,97,0.00,,---,0.45,VWS V14.01,2013-07-13 02:40:00,
2013-07-12 22:45:00,76.1,75.5,29.83,SSW,199,0.0,0.0,98,0.00,,---,0.45,VWS V14.01,2013-07-13 02:45:00,
2013-07-12 22:50:00,76.0,75.4,29.83,SSW,199,0.0,0.0,98,0.00,,---,0.45,VWS V14.01,2013-07-13 02:50:00,
2013-07-12 23:00:00,76.8,75.9,29.81,SSW,199,0.0,0.0,97,0.00,,---,0.45,VWS V14.01,2013-07-13 03:00:00,
2013-07-12 23:30:00,76.3,75.4,29.83,SSW,199,0.0,0.0,97,0.00,,---,0.45,VWS V14.01,2013-07-13 03:30:00,